Weather History for Hereford, TX

Change the Weather History Date:

Friday, April 27, 2012

  Actual Average (KAMA) Record (KAMA)
Temperature  
Mean Temperature 70 °F 60 °F  
Max Temperature 86 °F 74 °F 92 °F (1927)
Min Temperature 53 °F 45 °F 30 °F (1995)
Degree Days  
Heating Degree Days 0 6  
Month to date heating degree days 263  
Since 1 July heating degree days 4072  
Cooling Degree Days 4 1  
Month to date cooling degree days 13  
Year to date cooling degree days 15  
Growing Degree Days 20 (Base 50)    
Moisture  
Dew Point 33 °F    
Average Humidity 30    
Maximum Humidity 83    
Minimum Humidity 12    
Precipitation  
Precipitation 0.00 in 0.05 in 1.38 in (1932)
Month to date precipitation 1.25  
Year to date precipitation 3.92  
Snow  
Snow 0.00 in 0.00 in T in (1998)
Month to date snowfall 0.7  
Since 1 July snowfall 17.6  
Snow Depth -    
Sea Level Pressure  
Sea Level Pressure 29.76 in    
Wind  
Wind Speed 18 mph (West)    
Max Wind Speed 30 mph    
Max Gust Speed 39 mph    
Visibility 10 miles    
Events      
T = Trace of Precipitation, MM = Missing Value Source: NWS Daily Summary

Daily Weather History Graph

Daily Weather History Graph

Search for Another Location

Airport:

Trip Planner

Search our weather history database for the weather conditions in past years. The results will help you decide how hot, cold, wet, or windy it might be!

Date:

Astronomy

Apr. 27, 2012 Rise Set
Actual Time 7:02 AM CDT 8:31 PM CDT
Civil Twilight 6:35 AM CDT 8:58 PM CDT
Nautical Twilight 6:03 AM CDT 9:30 PM CDT
Astronomical Twilight 5:30 AM CDT 10:04 PM CDT
Moon 11:45 AM CDT (4/27) 1:16 AM CDT (4/27)
Length of Visible Light 14h 22m
Length of Day
13h 29m
Waxing Crescent, 33% of the Moon is Illuminated
Apr 27
Waxing Crescent
Apr 29
First Quarter
May 5
Full
May 12
Last Quarter
May 20
New

Hourly Weather History & Observations

Time (CDT) Temp. Dew Point Humidity Pressure Visibility Wind Dir Wind Speed Gust Speed Precip Events Conditions
12:15 AM 68.0 °F 59.0 °F 73% 29.75 in 10.0 mi SSE 23.0 mph 31.1 mph N/A   Clear
12:35 AM 66.2 °F 59.0 °F 78% 29.76 in 10.0 mi SE 18.4 mph 25.3 mph N/A   Clear
1:15 AM 64.4 °F 59.0 °F 83% 29.81 in 10.0 mi South 9.2 mph - N/A   Clear
1:35 AM 64.4 °F 59.0 °F 83% 29.80 in 10.0 mi South 18.4 mph 23.0 mph N/A   Scattered Clouds
1:55 AM 64.4 °F 59.0 °F 83% 29.80 in 10.0 mi SSE 9.2 mph 18.4 mph N/A   Scattered Clouds
2:15 AM 64.4 °F 57.2 °F 77% 29.80 in 10.0 mi South 6.9 mph - N/A   Clear
2:35 AM 62.6 °F 55.4 °F 77% 29.79 in 10.0 mi SSW 8.1 mph - N/A   Clear
2:55 AM 64.4 °F 51.8 °F 64% 29.79 in 10.0 mi West 9.2 mph - N/A   Clear
3:15 AM 60.8 °F 42.8 °F 52% 29.80 in 10.0 mi WNW 10.4 mph - N/A   Clear
3:35 AM 60.8 °F 39.2 °F 45% 29.80 in 10.0 mi NW 16.1 mph 19.6 mph N/A   Clear
3:55 AM 60.8 °F 32.0 °F 34% 29.80 in 10.0 mi NW 17.3 mph 21.9 mph N/A   Clear
4:15 AM 59.0 °F 32.0 °F 36% 29.80 in 10.0 mi WNW 16.1 mph 21.9 mph N/A   Clear
4:35 AM 59.0 °F 30.2 °F 34% 29.80 in 10.0 mi WNW 16.1 mph 23.0 mph N/A   Clear
4:55 AM 57.2 °F 30.2 °F 36% 29.79 in 10.0 mi WNW 11.5 mph - N/A   Clear
5:15 AM 53.6 °F 32.0 °F 44% 29.78 in 10.0 mi West 8.1 mph - N/A   Clear
5:35 AM 53.6 °F 30.2 °F 41% 29.78 in 10.0 mi West 10.4 mph - N/A   Clear
5:55 AM 53.6 °F 30.2 °F 41% 29.77 in 10.0 mi West 10.4 mph 21.9 mph N/A   Clear
6:15 AM 55.4 °F 28.4 °F 36% 29.76 in 10.0 mi West 16.1 mph 20.7 mph N/A   Clear
6:35 AM 55.4 °F 28.4 °F 36% 29.75 in 10.0 mi West 15.0 mph 19.6 mph N/A   Clear
6:55 AM 55.4 °F 28.4 °F 36% 29.77 in 10.0 mi West 24.2 mph 35.7 mph N/A   Clear
7:15 AM 55.4 °F 30.2 °F 38% 29.77 in 10.0 mi West 18.4 mph - N/A   Clear
7:35 AM 55.4 °F 30.2 °F 38% 29.78 in 10.0 mi West 20.7 mph 28.8 mph N/A   Clear
7:55 AM 57.2 °F 30.2 °F 36% 29.79 in 10.0 mi West 19.6 mph - N/A   Clear
8:35 AM 60.8 °F 32.0 °F 34% 29.78 in 10.0 mi West 28.8 mph 35.7 mph N/A   Clear
8:55 AM 60.8 °F 32.0 °F 34% 29.78 in 10.0 mi West 28.8 mph 35.7 mph N/A   Clear
9:15 AM 62.6 °F 32.0 °F 32% 29.78 in 10.0 mi West 28.8 mph 39.1 mph N/A   Clear
9:35 AM 64.4 °F 32.0 °F 30% 29.78 in 10.0 mi West 29.9 mph 38.0 mph N/A   Clear
9:55 AM 66.2 °F 32.0 °F 28% 29.78 in 10.0 mi West 27.6 mph 35.7 mph N/A   Clear
10:15 AM 68.0 °F 32.0 °F 26% 29.77 in 10.0 mi West 29.9 mph 36.8 mph N/A   Clear
10:35 AM 69.8 °F 32.0 °F 25% 29.77 in 10.0 mi West 27.6 mph 36.8 mph N/A   Clear
10:55 AM 71.6 °F 32.0 °F 23% 29.77 in 10.0 mi West 28.8 mph 36.8 mph N/A   Clear
11:15 AM 71.6 °F 30.2 °F 22% 29.77 in 10.0 mi West 28.8 mph 34.5 mph N/A   Clear
11:35 AM 73.4 °F 30.2 °F 20% 29.78 in 10.0 mi West 26.5 mph 35.7 mph N/A   Clear
11:55 AM 73.4 °F 30.2 °F 20% 29.78 in 10.0 mi West 25.3 mph 35.7 mph N/A   Clear
12:15 PM 75.2 °F 30.2 °F 19% 29.78 in 10.0 mi West 24.2 mph 34.5 mph N/A   Clear
12:35 PM 77.0 °F 28.4 °F 17% 29.78 in 10.0 mi West 26.5 mph 33.4 mph N/A   Clear
12:55 PM 78.8 °F 28.4 °F 16% 29.77 in 10.0 mi West 19.6 mph 29.9 mph N/A   Clear
1:15 PM 78.8 °F 28.4 °F 16% 29.76 in 10.0 mi West 18.4 mph 31.1 mph N/A   Clear
1:35 PM 78.8 °F 28.4 °F 16% 29.76 in 10.0 mi WSW 15.0 mph 29.9 mph N/A   Clear
1:55 PM 80.6 °F 28.4 °F 15% 29.75 in 10.0 mi West 17.3 mph 27.6 mph N/A   Clear
2:15 PM 80.6 °F 28.4 °F 15% 29.75 in 10.0 mi WSW 19.6 mph 32.2 mph N/A   Clear
2:35 PM 80.6 °F 28.4 °F 15% 29.75 in 10.0 mi West 16.1 mph 29.9 mph N/A   Clear
2:55 PM 82.4 °F 28.4 °F 14% 29.74 in 10.0 mi West 19.6 mph 27.6 mph N/A   Clear
3:15 PM 84.2 °F 28.4 °F 13% 29.73 in 10.0 mi West 19.6 mph 27.6 mph N/A   Clear
3:35 PM 86.0 °F 28.4 °F 12% 29.73 in 10.0 mi WSW 27.6 mph 34.5 mph N/A   Clear
3:55 PM 86.0 °F 26.6 °F 12% 29.72 in 10.0 mi WSW 20.7 mph 33.4 mph N/A   Clear
4:15 PM 86.0 °F 26.6 °F 12% 29.71 in 10.0 mi West 24.2 mph 31.1 mph N/A   Clear
4:55 PM 86.0 °F 26.6 °F 12% 29.71 in 10.0 mi West 25.3 mph 33.4 mph N/A   Clear
5:15 PM 86.0 °F 26.6 °F 12% 29.71 in 10.0 mi WSW 23.0 mph 39.1 mph N/A   Clear
5:35 PM 86.0 °F 28.4 °F 12% 29.71 in 10.0 mi West 23.0 mph 34.5 mph N/A   Clear
5:55 PM 84.2 °F 26.6 °F 12% 29.71 in 10.0 mi West 21.9 mph 34.5 mph N/A   Clear
6:15 PM 84.2 °F 26.6 °F 12% 29.70 in 10.0 mi WSW 25.3 mph 34.5 mph N/A   Clear
6:35 PM 84.2 °F 26.6 °F 12% 29.70 in 10.0 mi West 23.0 mph 29.9 mph N/A   Clear
6:55 PM 82.4 °F 26.6 °F 13% 29.71 in 10.0 mi WSW 21.9 mph 32.2 mph N/A   Clear
7:15 PM 82.4 °F 28.4 °F 14% 29.70 in 10.0 mi West 23.0 mph 28.8 mph N/A   Clear
7:35 PM 82.4 °F 28.4 °F 14% 29.71 in 10.0 mi WSW 23.0 mph 29.9 mph N/A   Clear
7:55 PM 80.6 °F 28.4 °F 15% 29.71 in 10.0 mi WSW 20.7 mph 29.9 mph N/A   Clear
8:15 PM 78.8 °F 26.6 °F 15% 29.71 in 10.0 mi WSW 18.4 mph 24.2 mph N/A   Clear
8:35 PM 78.8 °F 26.6 °F 15% 29.72 in 7.0 mi WSW 15.0 mph - N/A   Clear
8:55 PM 77.0 °F 26.6 °F 16% 29.73 in 5.0 mi WSW 17.3 mph 21.9 mph N/A   Haze
9:15 PM 77.0 °F 26.6 °F 16% 29.74 in 5.0 mi WSW 17.3 mph 23.0 mph N/A   Haze
9:35 PM 75.2 °F 26.6 °F 17% 29.75 in 5.0 mi WSW 18.4 mph 23.0 mph N/A   Haze
9:55 PM 73.4 °F 26.6 °F 18% 29.75 in 7.0 mi WSW 16.1 mph 20.7 mph N/A   Clear
10:15 PM 71.6 °F 26.6 °F 19% 29.77 in 7.0 mi WSW 13.8 mph - N/A   Clear
10:35 PM 69.8 °F 28.4 °F 21% 29.77 in 10.0 mi WSW 12.7 mph - N/A   Clear
10:55 PM 68.0 °F 28.4 °F 23% 29.78 in 10.0 mi WSW 11.5 mph - N/A   Clear
11:15 PM 69.8 °F 28.4 °F 21% 29.78 in 10.0 mi WSW 13.8 mph - N/A   Clear
11:35 PM 69.8 °F 28.4 °F 21% 29.79 in 10.0 mi WSW 15.0 mph - N/A   Clear
11:55 PM 69.8 °F 26.6 °F 20% 29.79 in 10.0 mi WSW 17.3 mph - N/A   Clear